{"data":{"norad_id":67390,"epoch":"2026-05-24T23:23:37.931712Z","epoch_age_seconds":80287,"freshness":"FRESH","line1":"1 67390U 26004AD  26144.97474458  .00002430  00000+0  12376-3 0  9992","line2":"2 67390  97.4585 144.2622 0005660  72.8360 287.3493 15.17731164 20227","mean_motion":15.17731164,"eccentricity":0.000566,"inclination_deg":97.4585,"raan_deg":144.2622,"arg_perigee_deg":72.836,"mean_anomaly_deg":287.3493,"bstar":0.00012376,"rev_number":2022,"period_min":94.878462942334,"perigee_km":508.79920283921,"apogee_km":516.59962966241,"semimajor_km":6890.8364162508,"source":"CELESTRAK","updated_at":"2026-05-25T13:38:06.957803Z"}}